Tracking 21676 objects as of 29-Oct-2020
HD Live streaming from Space Station
objects crossing your sky now

COSMOS 1651 (GLONASS)

Track COSMOS 1651 (GLONASS) now!
COSMOS 1651 (GLONASS) is classified as:


NORAD ID: 15698
Int'l Code: 1985-037B
Perigee: 19,097.8 km
Apogee: 19,172.6 km
Inclination: 64.1 °
Period: 675.7 minutes
Semi major axis: 25506 km
RCS: 1.6087 m2 (large)
Launch date: May 17, 1985
Source: Commonwealth of Independent States (former USSR) (CIS)
Launch site: TYURATAM MISSILE AND SPACE COMPLEX (TTMTR)
aabbcc
Your satellite tracking list
Your tracking list is empty




NASA's NSSDC Master Catalog

Two Line Element Set (TLE):
1 15698U 85037B   20302.58445354  .00000091  00000-0  00000+0 0  9996
2 15698  64.1426 143.6543 0014664  22.2052 155.2664  2.13125155275923
Source of the keplerian elements: AFSPC